User: anonymous
Location: Oshawa
(43.9000°N, 78.8670°W)
Time: 16:58:29
(UTC-04:00)
Language:

Iridium 54 - Orbit

View from above orbital plane
View from above orbital plane
View from above satellite
View from above satellite

Ground track
Ground track

The orbit data is extracted from the following two-line orbital elements,

1 25171U 98010C   14239.04879128  .00000043  00000-0  81898-5 0  8841
2 25171 086.3935 058.8820 0002040 107.1966 252.9454 14.34217364864991
Epoch (UTC): 27 August 2014 01:10:15
Eccentricity: 0.0002040
inclination: 86.3935°
perigee height: 776 km
apogee height: 779 km
right ascension of ascending node: 58.8820°
argument of perigee: 107.1966°
revolutions per day: 14.34217364
mean anomaly at epoch: 252.9454°
orbit number at epoch: 86499

The dashed part of the orbit path shows where the satellite is in the earth's shadow,  

DLR